This is the latest recevied weather packets stored in our database for station/object KI5MKI. If no packets are shown the sender has not sent any weather packets the latest 10 day(s).
| Time | Temp. | Humidity | Pressure | Rain* | Wind** | Luminosity | Snow |
|---|---|---|---|---|---|---|---|
| 1777928959 | 26.67° C | 48% | 1009.3 hPa | 0 mm | - | 735 W/m² | - |
| 1777928656 | 26.67° C | 46% | 1009.6 hPa | 0 mm | - | 662 W/m² | - |
| 1777928352 | 26.11° C | 47% | 1009.8 hPa | 0 mm | - | 768 W/m² | - |
| 1777928050 | 26.11° C | 49% | 1009.6 hPa | 0 mm | - | 718 W/m² | - |
| 1777927748 | 26.11° C | 48% | 1010 hPa | 0 mm | - | 690 W/m² | - |
| 1777927446 | 26.67° C | 46% | 1010.1 hPa | 0 mm | - | 657 W/m² | - |
| 1777927146 | 26.11° C | 46% | 1010.2 hPa | 0 mm | - | 787 W/m² | - |
| 1777926842 | 26.11° C | 46% | 1010.3 hPa | 0 mm | - | 851 W/m² | - |
| 1777926538 | 26.11° C | 47% | 1010.5 hPa | 0 mm | - | 870 W/m² | - |
| 1777926235 | 25.56° C | 47% | 1010.5 hPa | 0 mm | - | 697 W/m² | - |
| 1777925931 | 25.56° C | 47% | 1010.5 hPa | 0 mm | - | 756 W/m² | - |
| 1777925629 | 26.11° C | 48% | 1010.6 hPa | 0 mm | - | 681 W/m² | - |
| 1777925326 | 26.11° C | 47% | 1010.8 hPa | 0 mm | - | 862 W/m² | - |
| 1777925023 | 25.56° C | 46% | 1010.9 hPa | 0 mm | - | 864 W/m² | - |
| 1777924719 | 25.56° C | 46% | 1010.9 hPa | 0 mm | - | 903 W/m² | - |
| 1777924415 | 25° C | 46% | 1011.1 hPa | 0 mm | - | 767 W/m² | - |
| 1777924112 | 25.56° C | 46% | 1011.3 hPa | 0 mm | - | 713 W/m² | - |
| 1777923808 | 25.56° C | 47% | 1011.4 hPa | 0 mm | - | 758 W/m² | - |
| 1777923504 | 25.56° C | 48% | 1011.5 hPa | 0 mm | - | 895 W/m² | - |
| 1777923202 | 25.56° C | 46% | 1011.6 hPa | 0 mm | - | 840 W/m² | - |
| 1777922900 | 25° C | 47% | 1011.6 hPa | 0 mm | - | 853 W/m² | - |
| 1777922598 | 25.56° C | 45% | 1011.6 hPa | 0 mm | - | 753 W/m² | - |
| 1777922296 | 25.56° C | 46% | 1011.7 hPa | 0 mm | - | 976 W/m² | - |
| 1777921993 | 25.56° C | 50% | 1011.7 hPa | 0 mm | - | 927 W/m² | - |
| 1777921689 | 25° C | 48% | 1011.9 hPa | 0 mm | - | 934 W/m² | - |
* Rain latest hour (hover to see other rain measurements)
** Current wind speed in m/s (hover to see current wind gust speed)